Probability
0 0 0 0 0 0 0 0 0 0 0 0 0 0 0 0 0 0 0 0 0 0 0 0 0 0 0 0 0 0 0 0 0 0 6 39 74 84
0 0 0 0 0 0 0 0 0 0 0 0 0 0 0 0 0 0 0 0 0 0 0 0 0 0 0 0 0 0 0 0 0 0 6 23 32 19
0 0 0 0 0 0 0 0 0 0 0 0 0 0 0 0 0 0 0 0 0 0 0 0 0 0 0 0 0 0 0 0 0 0 3 10 6 0
0 0 0 0 0 0 0 0 0 0 0 0 0 0 0 0 0 0 0 0 0 0 0 0 0 0 0 0 0 0 0 0 0 0 0 0 0 0
0 0 0 0 0 0 0 0 0 0 0 0 0 0 0 0 0 0 0 0 0 0 0 0 0 0 0 0 0 0 0 0 0 0 0 0 0 0
0 0 0 0 0 0 0 0 0 0 0 0 0 0 0 0 0 0 0 0 0 0 0 0 0 0 0 0 0 0 0 0 0 0 0 0 0 0
0 0 0 0 0 0 0 0 0 0 0 0 0 0 0 0 0 0 0 0 0 0 0 0 0 0 0 0 0 0 0 0 0 0 0 0 0 0
0 0 0 0 0 0 0 0 0 0 0 0 0 0 0 0 0 0 0 0 0 0 0 0 0 0 0 0 0 0 0 0 0 0 0 0 0 0
0 0 0 0 0 0 0 0 0 0 0 0 0 0 0 0 0 0 0 0 0 0 0 0 0 0 0 0 0 0 0 0 0 0 0 0 0 0
0 0 0 0 0 0 0 0 0 0 0 0 0 0 0 0 0 0 0 0 0 0 0 0 0 0 0 0 0 0 0 0 0 0 0 0 0 0
0 0 0 0 0 0 0 0 0 0 0 0 0 0 0 0 0 0 0 0 0 0 0 0 0 0 0 0 0 0 0 0 0 0 0 0 0 0
0 0 0 0 0 0 0 0 0 0 0 0 0 0 0 0 0 0 0 0 0 0 0 0 0 0 0 0 0 0 0 0 0 0 0 0 0 0
0 0 0 0 0 0 0 0 0 0 0 0 0 0 0 0 0 0 0 0 0 0 0 0 0 0 0 0 0 0 0 0 0 0 0 0 0 0
0 0 0 0 0 0 0 0 0 0 0 0 0 0 0 0 0 0 0 0 0 0 0 0 0 0 0 0 0 0 0 0 0 0 0 0 0 0
0 0 0 0 0 0 0 0 0 0 0 0 0 0 0 0 0 0 0 0 0 0 0 0 0 0 0 0 0 0 0 0 0 0 0 0 0 0
0 0 0 0 0 0 0 0 0 0 0 0 0 0 0 0 0 0 0 0 0 0 0 0 0 0 0 0 0 0 0 0 0 0 0 0 0 0
0 0 0 0 0 0 0 0 0 0 0 0 0 0 0 0 0 0 0 0 0 0 0 0 0 0 0 0 0 0 0 0 0 0 0 0 0 0
0 0 0 0 0 0 0 0 0 0 0 0 0 0 0 0 0 0 0 0 0 0 0 0 0 0 0 0 0 0 0 0 0 0 0 0 0 0
0 0 0 0 0 0 0 0 0 0 0 0 0 0 0 0 0 0 0 0 0 0 0 0 0 0 0 0 0 0 0 0 0 0 0 0 0 0
0 0 0 0 0 0 0 0 0 0 0 0 0 0 0 0 0 0 0 0 0 0 0 0 0 0 0 0 0 0 0 0 0 0 0 0 0 0
0 0 0 0 0 0 0 0 0 0 0 0 0 0 0 0 0 0 0 0 0 0 0 0 0 0 0 0 0 0 0 0 0 0 0 0 0 0
0 0 0 0 0 0 0 0 0 0 0 0 0 0 0 0 0 0 0 0 0 0 0 0 0 0 0 0 0 0 0 0 0 0 0 0 0 0
0 0 0 0 0 0 0 0 0 0 0 0 0 0 0 0 0 0 0 0 0 0 0 0 0 0 0 0 0 0 0 0 0 0 0 0 0 0
Height
5293 5301 5308 5315 5322 5329 5337 5346 5358 5370 5385 5402 5417 5436 5458 5480 5502 5524 5545 5565 5581 5598 5614 5629 5644 5658 5670 5682 5692 5702 5711 5721 5731 5740 5749 5758 5766 5773
5287 5294 5300 5307 5313 5320 5327 5336 5346 5359 5374 5389 5405 5423 5442 5464 5486 5509 5530 5550 5568 5584 5601 5617 5632 5646 5659 5672 5683 5693 5702 5712 5721 5730 5740 5749 5757 5764
5285 5290 5295 5300 5306 5312 5319 5327 5337 5349 5364 5378 5395 5411 5430 5450 5471 5494 5516 5536 5555 5571 5588 5604 5619 5634 5648 5660 5673 5685 5694 5702 5712 5721 5730 5739 5747 5755
5284 5287 5291 5296 5301 5306 5312 5320 5330 5341 5355 5370 5385 5403 5420 5438 5458 5480 5502 5522 5541 5558 5575 5592 5607 5622 5636 5649 5662 5674 5686 5695 5704 5712 5721 5730 5737 5745
5284 5286 5289 5293 5297 5302 5308 5315 5324 5335 5349 5363 5378 5394 5411 5428 5447 5466 5488 5508 5527 5545 5563 5580 5595 5610 5624 5638 5650 5663 5676 5687 5697 5704 5712 5721 5728 5736
5284 5285 5287 5290 5294 5299 5304 5311 5320 5331 5343 5357 5371 5387 5403 5419 5437 5455 5475 5495 5514 5533 5551 5568 5583 5598 5612 5627 5641 5653 5665 5676 5687 5696 5704 5712 5720 5728
5283 5284 5286 5289 5292 5297 5302 5308 5316 5326 5339 5352 5366 5381 5397 5412 5428 5444 5463 5483 5502 5520 5538 5556 5572 5588 5601 5615 5628 5641 5654 5665 5677 5687 5697 5705 5713 5719
5282 5283 5285 5287 5291 5295 5300 5306 5314 5324 5335 5348 5362 5376 5391 5406 5421 5437 5453 5472 5491 5509 5526 5543 5559 5575 5590 5605 5618 5631 5643 5654 5666 5677 5688 5697 5704 5712
5282 5283 5284 5287 5290 5294 5299 5305 5313 5322 5333 5346 5359 5372 5387 5402 5417 5431 5444 5461 5479 5496 5514 5532 5548 5564 5579 5593 5607 5619 5631 5643 5655 5667 5678 5687 5695 5703
5282 5283 5284 5287 5290 5294 5299 5305 5313 5321 5332 5344 5358 5371 5384 5397 5410 5423 5437 5453 5470 5486 5504 5521 5537 5553 5568 5581 5595 5608 5621 5633 5645 5656 5667 5677 5686 5693
5282 5283 5284 5287 5290 5295 5300 5306 5313 5322 5332 5344 5356 5368 5381 5393 5405 5418 5431 5445 5461 5477 5493 5510 5526 5541 5556 5570 5583 5597 5610 5622 5634 5646 5657 5667 5675 5683
5284 5284 5286 5288 5292 5296 5302 5308 5315 5323 5332 5343 5355 5366 5378 5390 5401 5412 5424 5438 5453 5468 5483 5499 5515 5529 5544 5558 5572 5586 5599 5611 5624 5635 5646 5656 5665 5673
5287 5287 5288 5291 5295 5299 5304 5310 5317 5324 5333 5343 5354 5365 5376 5386 5396 5406 5418 5431 5445 5460 5475 5489 5504 5518 5533 5548 5561 5575 5588 5601 5613 5625 5635 5645 5655 5664
5291 5291 5292 5295 5298 5302 5307 5313 5319 5326 5334 5344 5353 5363 5373 5382 5391 5401 5412 5424 5437 5451 5465 5480 5494 5508 5523 5538 5551 5564 5577 5590 5603 5615 5626 5636 5644 5654
5297 5296 5296 5299 5302 5306 5311 5316 5322 5328 5336 5344 5352 5361 5369 5378 5386 5395 5405 5417 5429 5442 5457 5472 5486 5499 5513 5528 5541 5554 5567 5579 5592 5605 5616 5626 5636 5645
5303 5301 5302 5304 5307 5310 5314 5319 5324 5330 5337 5344 5351 5358 5366 5373 5381 5389 5399 5410 5422 5436 5449 5463 5477 5490 5504 5517 5530 5543 5556 5570 5582 5595 5607 5617 5626 5635
5310 5308 5307 5308 5311 5314 5318 5322 5327 5332 5338 5344 5350 5356 5363 5369 5375 5383 5391 5402 5415 5428 5441 5454 5468 5481 5495 5506 5519 5532 5546 5560 5574 5586 5597 5607 5615 5624
5319 5315 5313 5313 5314 5317 5321 5325 5329 5334 5339 5344 5349 5354 5360 5365 5371 5377 5384 5394 5406 5419 5432 5446 5460 5474 5486 5498 5509 5523 5536 5550 5563 5575 5586 5595 5604 5612
5327 5322 5318 5317 5317 5320 5323 5327 5331 5335 5339 5344 5348 5353 5357 5362 5367 5372 5379 5387 5397 5410 5424 5438 5453 5466 5479 5490 5500 5513 5528 5540 5552 5562 5573 5583 5593 5602
5336 5329 5325 5321 5320 5321 5324 5327 5331 5335 5339 5343 5348 5352 5356 5359 5364 5369 5374 5382 5391 5403 5417 5431 5445 5459 5472 5484 5495 5506 5518 5531 5543 5554 5563 5572 5581 5590
5343 5336 5331 5326 5324 5323 5324 5327 5330 5334 5338 5342 5346 5350 5354 5358 5361 5366 5372 5379 5387 5398 5411 5424 5438 5452 5465 5477 5488 5499 5510 5522 5533 5544 5554 5563 5572 5580
5349 5343 5337 5332 5328 5325 5325 5326 5329 5332 5336 5340 5344 5349 5352 5356 5360 5364 5369 5376 5384 5394 5406 5418 5431 5443 5456 5469 5481 5492 5503 5513 5523 5533 5544 5555 5563 5572
5354 5348 5342 5337 5332 5328 5326 5326 5327 5329 5333 5337 5342 5346 5350 5354 5358 5362 5367 5374 5382 5390 5401 5412 5424 5437 5448 5461 5473 5484 5495 5505 5515 5525 5534 5542 5552 5559
Wind_Speed
32 35 37 38 40 41 43 49 59 68 76 79 82 89 96 102 104 103 101 99 95 91 86 84 83 81 77 73 63 56 54 54 57 56 55 52 48 45
24 28 31 34 35 38 40 44 53 63 70 75 78 82 90 98 103 103 101 99 96 92 86 81 80 79 79 77 72 63 54 55 53 52 52 51 49 46
17 22 25 29 31 34 37 41 48 58 65 71 74 77 84 91 99 102 101 98 95 92 86 81 77 77 77 75 72 68 59 56 52 51 52 53 51 48
12 17 21 24 27 30 33 38 45 54 61 66 71 74 79 85 94 101 102 97 94 91 87 82 76 74 75 73 72 70 67 59 56 53 53 52 50 49
9 13 17 20 23 26 30 35 41 49 58 63 67 70 74 79 87 96 100 98 96 92 87 82 77 74 73 72 71 71 70 64 60 55 53 51 50 49
8 11 14 16 19 22 26 31 38 46 54 59 64 67 69 73 81 89 97 99 96 93 87 83 79 74 72 69 68 69 69 67 64 59 54 52 50 49
8 10 12 14 17 20 23 29 35 43 51 57 60 63 64 68 74 82 90 96 96 93 90 86 83 78 73 69 67 66 67 67 65 63 60 55 52 49
7 9 11 12 15 17 21 27 33 40 47 53 57 59 60 62 67 74 83 93 95 94 91 88 84 81 77 72 67 64 65 65 64 63 63 60 55 52
6 8 10 12 14 17 21 25 31 38 45 50 54 55 56 57 60 66 75 86 92 93 91 87 84 81 78 75 70 65 63 62 62 62 62 59 56 52
5 6 9 11 13 17 20 25 30 36 42 47 51 52 52 53 55 60 68 75 86 91 90 87 84 81 79 76 72 67 64 62 62 62 62 60 57 54
4 3 7 10 13 16 20 24 29 34 40 44 47 49 49 49 50 54 60 67 76 85 88 85 84 81 79 75 73 69 66 63 61 61 61 60 59 56
6 1 6 10 14 17 20 24 28 33 37 41 44 46 46 46 47 50 54 60 68 76 83 82 82 80 78 77 73 71 69 67 64 62 60 60 59 58
9 2 5 10 14 17 21 24 27 31 34 37 40 42 43 44 45 48 53 57 63 68 75 77 79 79 78 77 75 72 70 68 66 63 61 60 59 59
12 5 5 10 15 18 20 23 26 29 31 34 36 38 40 41 43 47 53 58 61 65 69 70 72 75 77 77 76 74 72 70 68 65 62 61 60 59
17 8 6 10 14 17 20 22 25 27 28 30 32 34 37 39 42 46 52 59 62 65 67 68 67 67 70 72 74 75 73 71 69 67 64 63 61 60
22 13 6 8 13 16 19 21 23 24 25 27 28 30 32 36 39 46 53 60 65 68 68 68 68 64 64 66 69 72 72 71 69 67 66 64 62 61
28 17 9 6 10 14 17 19 21 22 23 24 24 26 28 31 34 41 51 61 68 70 69 68 67 65 62 63 65 68 70 69 68 66 64 63 62 61
34 23 13 5 7 12 15 17 20 21 21 21 21 22 24 26 29 35 45 56 66 71 70 69 67 64 61 60 62 64 67 68 68 66 63 62 62 61
37 30 19 9 3 10 14 17 18 20 20 20 19 20 21 23 26 31 38 49 59 68 70 69 68 64 60 58 59 62 63 66 67 65 64 63 62 61
39 34 26 16 6 6 12 16 18 19 20 20 19 19 20 21 24 29 34 42 51 61 67 68 67 64 59 56 55 57 59 61 64 64 62 62 61 60
39 36 32 24 14 3 8 14 18 20 21 21 20 19 19 20 22 27 33 39 46 54 61 64 65 62 58 55 53 52 54 57 59 60 60 59 58 57
38 37 34 29 21 12 1 9 16 20 22 23 22 21 20 20 21 25 31 37 43 49 55 60 62 61 59 55 52 51 52 55 57 58 58 57 56 55
36 35 34 32 27 19 10 2 10 18 22 24 25 24 22 21 21 24 29 35 42 46 51 55 60 61 59 56 53 52 51 50 52 54 55 55 55 53
Wind_Direction
230 232 233 235 235 233 228 220 216 216 216 215 215 212 210 209 208 209 209 210 212 214 215 216 218 221 223 226 226 227 224 219 217 216 217 217 219 221
224 228 231 232 232 231 228 220 214 213 215 214 214 212 210 208 208 208 208 210 212 214 215 216 217 219 221 224 226 226 225 220 218 217 216 217 220 222
221 227 230 231 231 229 226 220 213 210 211 212 212 212 210 208 207 207 207 208 210 212 214 215 216 217 220 222 224 224 224 221 219 217 220 221 221 223
220 227 229 230 229 227 224 218 212 208 208 210 211 210 210 209 207 206 206 206 209 211 212 214 214 216 218 220 222 223 223 223 221 222 223 221 222 224
225 228 229 228 227 225 222 216 210 206 205 207 209 209 210 209 208 206 206 206 207 209 211 212 213 214 216 218 220 222 223 223 223 222 220 222 223 224
235 232 228 225 222 221 217 213 208 204 203 205 208 208 209 209 209 207 206 205 206 207 209 211 212 213 214 215 218 220 220 221 223 223 222 222 225 226
244 232 224 220 217 215 212 208 204 201 200 202 206 207 208 209 209 208 207 206 206 207 208 210 212 212 213 214 216 218 218 219 221 224 223 223 225 226
251 231 220 214 211 208 205 202 200 198 197 200 203 206 207 208 209 210 209 207 206 206 208 210 212 213 214 215 214 216 217 217 218 221 224 224 224 226
264 236 221 211 205 200 197 196 195 194 195 197 201 204 206 207 209 209 210 210 207 206 207 208 211 213 215 216 215 215 215 216 217 219 221 222 224 226
285 239 220 207 197 191 189 189 190 190 191 194 199 202 205 206 208 209 210 211 210 208 207 208 209 211 213 216 216 216 215 216 216 217 218 220 222 225
331 231 207 195 188 183 182 183 184 185 188 192 196 200 203 206 207 208 209 210 210 211 210 209 210 211 211 213 215 215 215 215 216 216 217 219 222 224
6 193 188 183 179 176 175 177 178 181 185 190 194 198 202 205 206 206 205 207 208 210 211 211 211 212 212 212 213 215 215 216 216 217 218 219 221 224
20 64 165 172 171 170 170 171 174 177 181 187 193 197 201 204 206 205 203 203 204 206 209 211 211 212 213 213 213 214 215 216 217 218 219 220 223 225
27 55 142 163 166 165 166 167 169 173 179 185 191 197 201 204 206 205 203 200 200 201 203 207 210 213 214 214 214 215 216 217 218 219 220 221 223 225
31 52 117 154 163 164 165 165 167 171 176 183 190 197 203 206 208 207 204 200 196 195 197 201 204 208 212 214 217 218 218 219 219 219 220 222 224 226
32 44 89 146 161 165 166 166 167 170 176 183 189 196 203 207 210 209 205 201 195 192 193 197 200 203 207 211 214 216 218 220 221 221 222 223 225 226
31 37 59 130 162 168 170 171 172 174 177 183 190 197 202 206 208 209 207 203 197 193 191 192 195 198 201 205 208 212 215 217 219 221 223 224 225 226
29 32 40 84 162 175 178 178 179 180 182 185 191 198 203 206 207 207 206 204 200 195 192 192 193 195 197 201 206 210 213 215 217 219 222 225 227 228
27 30 33 43 143 182 187 188 187 187 187 189 193 198 203 206 207 206 205 204 201 198 194 192 192 193 196 198 202 206 211 214 215 217 219 221 224 225
26 27 30 33 47 184 194 196 196 196 195 195 196 199 202 204 205 204 203 202 201 199 196 195 193 191 192 195 199 204 208 211 214 217 219 221 223 223
25 26 27 29 31 49 200 203 203 203 202 201 200 200 200 202 202 202 200 200 199 198 197 196 194 191 191 194 198 202 206 209 212 215 218 221 222 224
23 24 25 25 26 26 17 210 209 208 207 206 204 203 201 200 199 198 198 196 196 196 197 197 196 194 193 196 198 200 204 207 209 212 214 217 220 222
20 22 23 24 23 22 18 281 217 213 211 209 207 205 203 201 198 196 195 195 194 193 194 197 197 196 195 195 197 198 200 204 207 208 210 213 214 217